Regional Weather Roundup
Issued by NWS

Home | Current Version | Previous Version | Graphics & Text | Print | Product List | Glossary On
Versions: 1 2 3 4 5 6 7 8 9 10 11 12 13 14 15 16 17 18 19 20 21 22 23 24 25 26 27 28 29 30 31 32 33 34 35 36 37 38 39 40 41 42 43 44 45 46 47 48 49 50
753
ASUS43 KFSD 211310
RWRSD

WEATHER ROUNDUP FOR SOUTH DAKOTA
NATIONAL WEATHER SERVICE SIOUX FALLS SD
700 AM CST SUN JAN 21 2018

NOTE: "FAIR" INDICATES FEW OR NO CLOUDS BELOW 12,000 FEET WITH NO
SIGNIFICANT WEATHER AND/OR OBSTRUCTIONS TO VISIBILITY.


SDZ001>005-009-010-012>017-211400-
NORTHWEST AND NORTH CENTRAL SOUTH DAKOTA

CITY           SKY/WX    TMP DP  RH WIND       PRES   REMARKS
BUFFALO          N/A     22  17  81 W9        29.91R WCI  12
FAITH            N/A     28  23  81 NW6       29.97R WCI  22
MOBRIDGE       MOCLDY    27  23  85 N3        29.95F
$$

SDZ012>016-024>037-041>051-057-063-072>074-211400-
SOUTHWEST AND SOUTH CENTRAL SOUTH DAKOTA

CITY           SKY/WX    TMP DP  RH WIND       PRES   REMARKS
RAPID CTY ARPT CLOUDY    28  24  85 NW3       29.98R
PIERRE         CLOUDY    32  31  96 N5        29.96S WCI  27
CUSTER         LGT SNOW  22  17  81 N6        29.89R WCI  14
ELLSWORTH AFB  MOCLDY    28  27  95 NW7       29.97R WCI  21
PHILIP         CLOUDY    31  30  96 NW5       29.97R WCI  26
PINE RIDGE     LGT SNOW  30  29  96 N6        29.95S FOG     WCI  24
SPEARFISH        N/A     27  21  80 W3        29.97R
WINNER         LGT SNOW  34  32  92 N10       29.95S VSB 3/4 WCI  26
$$

SDZ004>011-016>023-039-040-211400-
NORTHEAST SOUTH DAKOTA

CITY           SKY/WX    TMP DP  RH WIND       PRES   REMARKS
ABERDEEN       PTCLDY    27  23  85 N8        29.99S WCI  19
WATERTOWN      CLOUDY    31  29  92 N3        29.94R
BROOKINGS      CLOUDY    38  30  73 N13       29.94R
SISSETON         N/A     30  25  81 NW8       29.98R WCI  22
$$

SDZ017-020-022-023-036>040-048>070-211400-
SOUTHEAST SOUTH DAKOTA

CITY           SKY/WX    TMP DP  RH WIND       PRES   REMARKS
SIOUX FALLS    CLOUDY    34  30  85 NE8       29.93R WCI  27
HURON          LGT RAIN  34  31  88 CALM      29.97R
CHAMBERLAIN    LGT RAIN  35  35 100 NW10      29.96F WCI  27
MITCHELL       CLOUDY    35  31  85 N7        29.95S WCI  29
YANKTON        CLOUDY    28  26  92 N5        29.91S WCI  23
$$

ABBREVIATIONS USED IN REMARKS
   TC - TEMPERATURE IN CELSIUS
  WCI - WIND CHILL INDEX
   HX - HEAT INDEX
  VSB - VISIBILITY





USA.gov is the U.S. government's official web portal to all federal, state and local government web resources and services.